THOR ABLESTAR DEB, 148

Orbit data source: Space-Track

THOR ABLESTAR DEB, 148 is space debris in LEO originally from a launch on Thu, 29 Jun 1961 UTC launched from the Air Force Eastern Test Range (AFETR). Debris objects in space refer to the collection of defunct objects orbiting the Earth. Examples of debris include non-operational satellites, rocket bodies, and fragments generated from explosions, collisions, or faulty payload assembly.

Loading next visibility...
Identifier
148, 1961-015AJ
Orbit
LEO
Last TLE update
10 hours ago
Origin
Manufacturer
Unknown
Mission
Spacecraft
Bus & Motor
Unknown
Mass
Unknown
Launch date (UTC)
1961-06-29 (64 years ago)
Launch vehicle
Unknown
Launch site
Air Force Eastern Test Range (AFETR)
Object type
Payload
Rocket body
Debris
Shape & HBR
Unknown
Radar Cross Section
Medium (>0.1 m² and <1 m²)

Expand to show TLE details & history

TLE from 10 hours ago
0 THOR ABLESTAR DEB
1 00148U 61015AJ  25181.59311221  .00000693  00000-0  40553-3 0  9995
2 00148  65.7735 318.3828 0136829 146.2463 214.7424 14.10034850709394
Epoch: 2025-06-30T14:14Z
TLE epoch observation values (Epoch: 2025-06-30T14:14:04.894Z)
Latitude
-0.00007°
Longitude
-174.03832°
Altitude
943.084 km
Speed
7.339 km/s
True Right ascension
21h 13m 31s
True Declination
0° 00' 00"
Sunlit
Object was in full shadow at epoch
Visualization orbit readout
Latitude
-65.51979°
Longitude
105.42673°
Altitude
943.84 km
Speed
7.348 km/s
Apparent Right ascension
21h 08m 21s
Apparent Declination
-67° 26' 33"
Sunlit
Object is in full shadow
Visualization observer readout
Local Sidereal Time
11:38:42
Azimuth
155.492° SSE
Elevation
-55.662°
Doppler factor
1
Orbital elements
Apogee altitude
956.759 km
Perigee altitude
758.743 km
Semi-major axis
7,235.888 km
Eccentricity
0.01368
Inclination
65.7735°
RAAN
318.3828°
Arg. of periapsis
146.2463°
True anomaly
Unknown
Mean anomaly
214.7424°
Eccentric anomaly
Unknown
Mean motion
3.52619 °/min
Orbital period
102.09 mins
BSTAR
0.00040553
Loading maneuver chart data...
Loading SW <> Apogee altitude chart data...

THOR ABLESTAR DEB Visibility forecast

Observer location: undefined°, undefined°

Span
Click to sort rows by Start time (UTC) header in descending order
Start Az.
Max El. time (UTC)
Max El. Az.
Max El.
End time (UTC)
End Az.
4 mins2025-07-01 09:05:58.202Z126.306° SE2025-07-01 09:07:58.202Z106.389° ESE11.989°2025-07-01 09:09:58.202Z85.682° E
10 mins2025-07-01 10:47:58.202Z207.592° SW2025-07-01 10:52:58.202Z39.206° NE44.216°2025-07-01 10:57:58.202Z31.111° NE
5 mins2025-07-01 12:35:58.202Z290.139° WNW2025-07-01 12:37:58.202Z314.07° NW16.998°2025-07-01 12:40:58.202Z350.526° N
4 mins2025-07-01 18:00:58.202Z19.163° NNE2025-07-01 18:02:58.202Z44.218° NE13.944°2025-07-01 18:04:58.202Z67.961° E
8 mins2025-07-01 19:44:58.202Z331.979° NNW2025-07-01 19:47:58.202Z349.538° N43.736°2025-07-01 19:52:58.202Z148.15° SSE
|